This demonstration page uses our WeatherBlox Daily Observations layout. Learn more.

Left ArrowRight Arrow

39.29038, -76.61219

Hourly Observations for March 13, 2020

Temp ( °F °C ) Dew Point ( °F °C ) Humidity (%) Winds ( mph kmh ) Pressure ( in mb ) Visibility ( mi km ) Precip ( " mm )
12:54 am 00:54 undefined 50 10 49 9.4 96 96 undefined N/A 29.96 1015 N/A 0.00 0.00
1:54 am 01:54 undefined 50 10 49 9.4 96 96 undefined N/A 29.95 1014 N/A 0.00 0.00
2:54 am 02:54 undefined 50 10 49 9.4 96 96 undefined N/A 29.92 1013 N/A 0.02 0.51
3:54 am 03:54 undefined 50 10 49 9.4 96 96 undefined N/A 29.87 1012 N/A 0.10 2.54
4:54 am 04:54 undefined 51 10.6 49 9.4 92 92 undefined N/A 29.82 1010 N/A 0.13 3.30
5:54 am 05:54 undefined 51 10.6 50 10 96 96 undefined N/A 29.83 1010 N/A 0.00 0.00
6:54 am 06:54 undefined 52 11.1 50 10 93 93 undefined N/A 29.83 1010 N/A 0.00 0.00
7:54 am 07:54 undefined 52 11.1 50 10 93 93 undefined N/A 29.82 1010 N/A 0.00 0.00
8:54 am 08:54 undefined 53 11.7 51 10.6 93 93 undefined N/A 29.83 1010 N/A 0.00 0.00
9:54 am 09:54 undefined 57 13.9 53 11.7 87 87 undefined N/A 29.83 1010 N/A 0.00 0.00
10:54 am 10:54 undefined 64 17.8 56 13.3 75 75 undefined N/A 29.85 1011 N/A 0.00 0.00
11:54 am 11:54 undefined 68 20 56 13.3 65 65 undefined N/A 29.86 1011 N/A 0.00 0.00
12:54 pm 12:54 undefined 71 21.7 51 10.6 49 49 undefined N/A 29.86 1011 N/A 0.00 0.00
1:54 pm 13:54 undefined 74 23.3 51 10.6 45 45 undefined N/A 29.85 1011 N/A 0.00 0.00
2:54 pm 14:54 undefined 73 22.8 41 5 32 32 undefined N/A 29.86 1011 N/A 0.00 0.00
3:54 pm 15:54 undefined 72 22.2 36 2.2 27 27 undefined N/A 29.89 1012 N/A 0.00 0.00
4:54 pm 16:54 undefined 71 21.7 23 -5 16 16 undefined N/A 29.91 1013 N/A 0.00 0.00
5:54 pm 17:54 undefined 69 20.6 21 -6.1 16 16 undefined N/A 29.93 1014 N/A 0.00 0.00
6:54 pm 18:54 undefined 67 19.4 26 -3.3 21 21 undefined N/A 29.98 1015 N/A 0.00 0.00
7:54 pm 19:54 undefined 65 18.3 21 -6.1 19 19 undefined N/A 30.04 1017 N/A 0.00 0.00
8:54 pm 20:54 undefined 63 17.2 22 -5.6 21 21 undefined N/A 30.09 1019 N/A 0.00 0.00
9:54 pm 21:54 undefined 61 16.1 23 -5 23 23 undefined N/A 30.12 1020 N/A 0.00 0.00
10:54 pm 22:54 undefined 59 15 22 -5.6 24 24 undefined N/A 30.16 1021 N/A 0.00 0.00
11:54 pm 23:54 undefined 57 13.9 20 -6.7 24 24 undefined N/A 30.19 1022 N/A 0.00 0.00

Powered by AerisWeather